QPF
0.01 0.02 0.07 0.10 0.11 0.07 0.05 0.05 0.05 0.06 0.07 0.07 0.05 0.05 0.04 0.04 0.05 0.05 0.05 0.05 0.05 0.06 0.06 0.07 0.06 0.04 0.03 0.04 0.04 0.05 0.06 0.06 0.06 0.07 0.08 0.06 0.05 0.06 0.07 0.08 0.09 0.10 0.11
0.01 0.01 0.05 0.08 0.08 0.05 0.06 0.06 0.07 0.06 0.06 0.08 0.07 0.06 0.05 0.03 0.03 0.04 0.05 0.06 0.06 0.07 0.08 0.07 0.07 0.04 0.04 0.04 0.05 0.06 0.06 0.05 0.05 0.06 0.09 0.10 0.10 0.10 0.08 0.07 0.09 0.10 0.10
0.01 0.01 0.03 0.07 0.06 0.04 0.05 0.06 0.06 0.08 0.08 0.09 0.08 0.07 0.05 0.05 0.04 0.04 0.05 0.07 0.06 0.07 0.08 0.08 0.08 0.06 0.06 0.05 0.04 0.05 0.07 0.07 0.07 0.07 0.07 0.11 0.15 0.17 0.15 0.10 0.08 0.09 0.10
0.01 0.01 0.02 0.05 0.05 0.04 0.03 0.05 0.05 0.06 0.07 0.08 0.08 0.08 0.06 0.05 0.04 0.04 0.04 0.05 0.05 0.05 0.05 0.04 0.06 0.07 0.07 0.07 0.06 0.07 0.08 0.09 0.10 0.09 0.09 0.11 0.12 0.15 0.18 0.18 0.11 0.09 0.08
0.01 0.01 0.02 0.03 0.04 0.04 0.04 0.04 0.04 0.04 0.05 0.07 0.09 0.08 0.07 0.05 0.04 0.04 0.05 0.05 0.05 0.05 0.04 0.04 0.04 0.05 0.05 0.04 0.04 0.05 0.07 0.08 0.08 0.07 0.07 0.08 0.07 0.10 0.14 0.20 0.14 0.09 0.08
0.01 0.01 0.02 0.03 0.04 0.03 0.03 0.03 0.03 0.03 0.04 0.06 0.12 0.18 0.12 0.06 0.05 0.04 0.04 0.04 0.04 0.05 0.04 0.03 0.03 0.04 0.05 0.04 0.03 0.04 0.06 0.11 0.09 0.10 0.11 0.12 0.10 0.10 0.17 0.21 0.14 0.09 0.08
0.02 0.03 0.03 0.03 0.03 0.02 0.02 0.03 0.03 0.02 0.03 0.05 0.12 0.19 0.10 0.07 0.07 0.06 0.05 0.05 0.05 0.05 0.03 0.03 0.03 0.04 0.05 0.04 0.05 0.08 0.11 0.14 0.15 0.14 0.16 0.17 0.17 0.17 0.21 0.21 0.13 0.09 0.08
0.03 0.03 0.03 0.03 0.02 0.02 0.01 0.02 0.03 0.03 0.05 0.05 0.06 0.07 0.06 0.05 0.08 0.08 0.07 0.08 0.08 0.06 0.05 0.05 0.04 0.03 0.04 0.05 0.14 0.25 0.24 0.15 0.17 0.19 0.17 0.17 0.16 0.19 0.21 0.19 0.13 0.10 0.09
0.03 0.03 0.02 0.03 0.02 0.01 0.01 0.02 0.03 0.07 0.15 0.10 0.08 0.07 0.06 0.06 0.08 0.10 0.10 0.10 0.10 0.10 0.09 0.07 0.06 0.05 0.03 0.04 0.10 0.14 0.13 0.08 0.07 0.09 0.12 0.19 0.20 0.20 0.18 0.16 0.14 0.11 0.10
0.01 0.02 0.02 0.02 0.02 0.01 0.01 0.02 0.03 0.05 0.09 0.09 0.08 0.08 0.09 0.09 0.09 0.09 0.10 0.10 0.11 0.11 0.10 0.08 0.07 0.06 0.05 0.04 0.04 0.06 0.07 0.05 0.05 0.06 0.08 0.18 0.26 0.24 0.20 0.19 0.19 0.18 0.15
0.01 0.01 0.01 0.01 0.02 0.01 0.01 0.01 0.02 0.03 0.04 0.06 0.08 0.08 0.09 0.08 0.06 0.06 0.08 0.07 0.07 0.10 0.10 0.08 0.07 0.07 0.05 0.05 0.05 0.06 0.06 0.04 0.04 0.06 0.10 0.19 0.26 0.26 0.24 0.25 0.29 0.26 0.19
0.00 0.00 0.01 0.01 0.02 0.03 0.02 0.02 0.02 0.02 0.03 0.03 0.04 0.03 0.02 0.03 0.04 0.05 0.05 0.04 0.04 0.04 0.07 0.07 0.05 0.04 0.03 0.03 0.03 0.03 0.03 0.03 0.06 0.11 0.21 0.23 0.23 0.25 0.24 0.23 0.20 0.16 0.15
0.00 0.00 0.01 0.01 0.01 0.02 0.02 0.03 0.03 0.02 0.02 0.02 0.02 0.01 0.01 0.02 0.03 0.03 0.03 0.02 0.02 0.03 0.03 0.03 0.03 0.01 0.01 0.01 0.01 0.01 0.01 0.02 0.04 0.08 0.17 0.23 0.24 0.23 0.19 0.19 0.17 0.15 0.14
0.00 0.00 0.01 0.01 0.01 0.02 0.02 0.02 0.03 0.02 0.01 0.01 0.02 0.02 0.01 0.01 0.02 0.03 0.03 0.02 0.01 0.01 0.01 0.01 0.01 0.01 0.01 0.01 0.00 0.00 0.00 0.01 0.02 0.04 0.12 0.17 0.20 0.19 0.15 0.14 0.15 0.14 0.12
0.00 0.00 0.00 0.01 0.01 0.01 0.02 0.01 0.02 0.03 0.02 0.01 0.02 0.02 0.02 0.02 0.02 0.02 0.01 0.02 0.02 0.01 0.01 0.01 0.01 0.01 0.01 0.00 0.00 0.00 0.00 0.01 0.02 0.04 0.07 0.10 0.15 0.15 0.12 0.12 0.10 0.09 0.07
0.01 0.01 0.01 0.01 0.02 0.01 0.02 0.02 0.03 0.03 0.03 0.03 0.03 0.03 0.02 0.03 0.02 0.02 0.01 0.02 0.02 0.01 0.01 0.01 0.01 0.01 0.00 0.00 0.00 0.00 0.00 0.01 0.01 0.02 0.04 0.06 0.11 0.12 0.11 0.10 0.08 0.06 0.04
0.02 0.02 0.02 0.02 0.02 0.02 0.02 0.03 0.03 0.04 0.03 0.03 0.03 0.03 0.03 0.03 0.03 0.02 0.02 0.03 0.02 0.01 0.00 0.01 0.01 0.01 0.00 0.01 0.01 0.00 0.00 0.01 0.01 0.01 0.01 0.03 0.04 0.07 0.08 0.08 0.07 0.06 0.05
0.02 0.03 0.04 0.03 0.02 0.02 0.02 0.03 0.05 0.05 0.04 0.03 0.02 0.03 0.04 0.05 0.04 0.03 0.02 0.03 0.03 0.01 0.01 0.01 0.01 0.01 0.01 0.01 0.01 0.01 0.00 0.00 0.00 0.00 0.01 0.01 0.02 0.02 0.03 0.03 0.04 0.04 0.04
0.03 0.04 0.04 0.04 0.02 0.02 0.02 0.02 0.05 0.07 0.05 0.04 0.03 0.03 0.06 0.09 0.09 0.06 0.04 0.03 0.04 0.02 0.02 0.01 0.02 0.03 0.02 0.02 0.02 0.01 0.01 0.00 0.00 0.00 0.00 0.01 0.01 0.01 0.01 0.01 0.02 0.03 0.04
0.03 0.04 0.04 0.04 0.04 0.04 0.03 0.03 0.04 0.07 0.07 0.04 0.04 0.04 0.07 0.12 0.15 0.13 0.10 0.06 0.04 0.03 0.03 0.03 0.03 0.03 0.03 0.02 0.02 0.01 0.01 0.01 0.00 0.00 0.00 0.00 0.00 0.00 0.01 0.01 0.01 0.02 0.05
0.03 0.04 0.04 0.03 0.03 0.04 0.04 0.04 0.05 0.05 0.06 0.05 0.04 0.04 0.04 0.06 0.09 0.09 0.09 0.07 0.06 0.05 0.05 0.04 0.04 0.03 0.03 0.02 0.02 0.01 0.01 0.01 0.00 0.00 0.00 0.00 0.00 0.01 0.02 0.02 0.02 0.02 0.04
0.01 0.02 0.03 0.04 0.03 0.03 0.04 0.04 0.06 0.07 0.06 0.04 0.04 0.05 0.05 0.04 0.04 0.04 0.04 0.04 0.05 0.06 0.06 0.05 0.05 0.05 0.05 0.04 0.04 0.02 0.01 0.01 0.01 0.00 0.00 0.00 0.00 0.00 0.01 0.01 0.02 0.02 0.03
0.01 0.01 0.02 0.03 0.03 0.03 0.03 0.03 0.05 0.07 0.08 0.06 0.05 0.06 0.05 0.04 0.03 0.03 0.03 0.02 0.03 0.04 0.04 0.04 0.04 0.05 0.05 0.06 0.07 0.05 0.02 0.01 0.00 0.00 0.00 0.00 0.00 0.00 0.01 0.01 0.01 0.01 0.02
0.00 0.00 0.01 0.01 0.02 0.03 0.03 0.02 0.03 0.05 0.07 0.06 0.05 0.05 0.05 0.04 0.03 0.03 0.03 0.03 0.03 0.03 0.03 0.05 0.05 0.05 0.05 0.05 0.05 0.04 0.02 0.01 0.00 0.00 0.00 0.00 0.00 0.00 0.00 0.01 0.01 0.00 0.00
0.00 0.00 0.00 0.01 0.01 0.02 0.03 0.02 0.02 0.04 0.05 0.06 0.05 0.04 0.03 0.02 0.02 0.04 0.05 0.05 0.05 0.04 0.04 0.04 0.05 0.05 0.05 0.05 0.05 0.04 0.03 0.02 0.02 0.02 0.01 0.01 0.01 0.00 0.00 0.00 0.01 0.01 0.00
0.00 0.00 0.00 0.01 0.01 0.02 0.02 0.03 0.02 0.03 0.05 0.06 0.04 0.03 0.02 0.01 0.01 0.02 0.03 0.04 0.04 0.03 0.03 0.04 0.05 0.06 0.07 0.06 0.05 0.04 0.04 0.02 0.02 0.01 0.01 0.00 0.00 0.00 0.00 0.00 0.00 0.00 0.01
MSLP
1010.13 1009.05 1008.03 1007.18 1006.56 1006.17 1006.00 1005.97 1006.02 1006.06 1006.06 1006.00 1005.90 1005.79 1005.72 1005.71 1005.76 1005.88 1006.02 1006.17 1006.31 1006.42 1006.53 1006.66 1006.83 1007.05 1007.33 1007.65 1007.98 1008.30 1008.58 1008.82 1009.03 1009.21 1009.39 1009.58 1009.79 1009.99 1010.19 1010.36 1010.49 1010.60 1010.69
1010.50 1009.46 1008.48 1007.66 1007.05 1006.68 1006.52 1006.49 1006.53 1006.57 1006.56 1006.49 1006.39 1006.28 1006.21 1006.19 1006.24 1006.34 1006.47 1006.59 1006.70 1006.79 1006.86 1006.94 1007.04 1007.19 1007.37 1007.59 1007.83 1008.07 1008.30 1008.52 1008.73 1008.94 1009.17 1009.40 1009.65 1009.88 1010.08 1010.25 1010.38 1010.48 1010.56
1010.77 1009.80 1008.89 1008.13 1007.59 1007.27 1007.14 1007.13 1007.18 1007.21 1007.19 1007.11 1006.99 1006.86 1006.77 1006.73 1006.75 1006.82 1006.92 1007.01 1007.09 1007.14 1007.17 1007.20 1007.23 1007.30 1007.40 1007.53 1007.68 1007.85 1008.04 1008.25 1008.47 1008.72 1008.98 1009.26 1009.53 1009.77 1009.97 1010.13 1010.24 1010.34 1010.43
1010.94 1010.07 1009.25 1008.59 1008.14 1007.90 1007.82 1007.85 1007.91 1007.94 1007.90 1007.80 1007.66 1007.50 1007.37 1007.30 1007.28 1007.30 1007.36 1007.41 1007.44 1007.45 1007.44 1007.41 1007.39 1007.39 1007.42 1007.48 1007.57 1007.70 1007.86 1008.07 1008.31 1008.58 1008.86 1009.15 1009.42 1009.64 1009.82 1009.95 1010.04 1010.12 1010.23
1011.05 1010.28 1009.59 1009.05 1008.72 1008.57 1008.56 1008.62 1008.69 1008.72 1008.66 1008.53 1008.35 1008.17 1008.00 1007.89 1007.82 1007.79 1007.79 1007.79 1007.77 1007.73 1007.68 1007.61 1007.55 1007.50 1007.48 1007.49 1007.55 1007.66 1007.81 1008.01 1008.26 1008.53 1008.81 1009.07 1009.30 1009.47 1009.59 1009.67 1009.73 1009.80 1009.93
1011.17 1010.51 1009.95 1009.55 1009.33 1009.27 1009.32 1009.41 1009.48 1009.48 1009.40 1009.25 1009.05 1008.84 1008.65 1008.49 1008.39 1008.31 1008.25 1008.19 1008.12 1008.03 1007.93 1007.83 1007.73 1007.66 1007.62 1007.62 1007.66 1007.76 1007.91 1008.11 1008.34 1008.59 1008.82 1009.02 1009.16 1009.24 1009.27 1009.28 1009.29 1009.36 1009.51
1011.38 1010.84 1010.40 1010.12 1010.00 1010.01 1010.10 1010.19 1010.23 1010.21 1010.10 1009.92 1009.70 1009.49 1009.29 1009.12 1008.99 1008.88 1008.77 1008.65 1008.53 1008.39 1008.24 1008.11 1007.99 1007.91 1007.87 1007.87 1007.92 1008.03 1008.17 1008.35 1008.54 1008.73 1008.88 1008.98 1009.00 1008.96 1008.88 1008.80 1008.77 1008.83 1009.02
1011.73 1011.29 1010.96 1010.79 1010.74 1010.79 1010.86 1010.92 1010.93 1010.85 1010.71 1010.52 1010.31 1010.11 1009.93 1009.78 1009.64 1009.51 1009.36 1009.20 1009.02 1008.83 1008.65 1008.49 1008.36 1008.28 1008.25 1008.27 1008.33 1008.43 1008.56 1008.71 1008.84 1008.95 1008.99 1008.96 1008.85 1008.68 1008.48 1008.31 1008.23 1008.28 1008.51
1012.21 1011.87 1011.64 1011.54 1011.53 1011.57 1011.61 1011.61 1011.55 1011.42 1011.25 1011.05 1010.87 1010.71 1010.57 1010.46 1010.34 1010.20 1010.03 1009.82 1009.59 1009.36 1009.15 1008.97 1008.84 1008.77 1008.75 1008.78 1008.85 1008.94 1009.05 1009.15 1009.21 1009.22 1009.15 1008.99 1008.75 1008.45 1008.15 1007.90 1007.78 1007.83 1008.09
1012.77 1012.52 1012.38 1012.33 1012.33 1012.35 1012.33 1012.25 1012.11 1011.92 1011.72 1011.54 1011.39 1011.28 1011.21 1011.14 1011.05 1010.92 1010.73 1010.49 1010.23 1009.96 1009.72 1009.53 1009.40 1009.34 1009.33 1009.37 1009.44 1009.52 1009.59 1009.64 1009.63 1009.54 1009.37 1009.10 1008.76 1008.37 1007.99 1007.69 1007.54 1007.59 1007.87
1013.34 1013.18 1013.11 1013.10 1013.11 1013.09 1013.00 1012.85 1012.63 1012.40 1012.18 1012.01 1011.91 1011.86 1011.85 1011.83 1011.76 1011.64 1011.44 1011.17 1010.88 1010.58 1010.32 1010.13 1010.01 1009.96 1009.97 1010.01 1010.08 1010.14 1010.18 1010.17 1010.09 1009.93 1009.69 1009.35 1008.94 1008.50 1008.09 1007.77 1007.61 1007.66 1007.94
1013.84 1013.77 1013.77 1013.81 1013.82 1013.76 1013.62 1013.40 1013.14 1012.87 1012.65 1012.51 1012.44 1012.45 1012.48 1012.49 1012.45 1012.32 1012.10 1011.82 1011.50 1011.19 1010.93 1010.74 1010.64 1010.61 1010.63 1010.69 1010.75 1010.79 1010.79 1010.74 1010.62 1010.42 1010.13 1009.77 1009.35 1008.91 1008.50 1008.19 1008.03 1008.07 1008.33
1014.23 1014.25 1014.33 1014.41 1014.44 1014.37 1014.20 1013.95 1013.66 1013.38 1013.17 1013.05 1013.02 1013.06 1013.11 1013.14 1013.09 1012.95 1012.71 1012.40 1012.07 1011.77 1011.52 1011.35 1011.28 1011.28 1011.32 1011.39 1011.45 1011.48 1011.46 1011.38 1011.23 1011.02 1010.73 1010.38 1010.00 1009.60 1009.23 1008.95 1008.81 1008.84 1009.06
1014.52 1014.63 1014.78 1014.91 1014.96 1014.90 1014.73 1014.48 1014.20 1013.94 1013.76 1013.66 1013.65 1013.70 1013.75 1013.75 1013.68 1013.51 1013.24 1012.92 1012.59 1012.30 1012.09 1011.96 1011.93 1011.96 1012.04 1012.12 1012.19 1012.21 1012.18 1012.09 1011.95 1011.74 1011.49 1011.19 1010.87 1010.54 1010.24 1010.00 1009.87 1009.88 1010.04
1014.75 1014.94 1015.15 1015.32 1015.40 1015.37 1015.23 1015.02 1014.77 1014.56 1014.40 1014.33 1014.33 1014.36 1014.38 1014.34 1014.22 1014.01 1013.72 1013.39 1013.08 1012.82 1012.65 1012.57 1012.59 1012.67 1012.79 1012.89 1012.97 1013.00 1012.97 1012.89 1012.76 1012.59 1012.39 1012.16 1011.91 1011.66 1011.42 1011.23 1011.12 1011.10 1011.18
1015.00 1015.22 1015.47 1015.66 1015.78 1015.78 1015.69 1015.54 1015.36 1015.20 1015.09 1015.03 1015.02 1015.03 1015.00 1014.91 1014.73 1014.48 1014.17 1013.85 1013.56 1013.35 1013.23 1013.21 1013.28 1013.41 1013.56 1013.69 1013.79 1013.83 1013.82 1013.76 1013.66 1013.54 1013.39 1013.22 1013.04 1012.86 1012.68 1012.53 1012.41 1012.35 1012.36
1015.30 1015.54 1015.78 1015.98 1016.10 1016.15 1016.12 1016.03 1015.93 1015.84 1015.77 1015.74 1015.72 1015.68 1015.60 1015.45 1015.23 1014.94 1014.62 1014.32 1014.07 1013.91 1013.85 1013.89 1014.01 1014.17 1014.35 1014.50 1014.61 1014.67 1014.68 1014.65 1014.59 1014.51 1014.41 1014.30 1014.18 1014.04 1013.90 1013.76 1013.64 1013.54 1013.47
1015.68 1015.88 1016.09 1016.27 1016.39 1016.46 1016.49 1016.48 1016.46 1016.44 1016.43 1016.41 1016.38 1016.31 1016.18 1015.98 1015.72 1015.42 1015.11 1014.83 1014.63 1014.52 1014.51 1014.60 1014.75 1014.94 1015.12 1015.29 1015.41 1015.49 1015.52 1015.52 1015.50 1015.46 1015.40 1015.33 1015.24 1015.12 1014.99 1014.85 1014.71 1014.57 1014.45
1016.09 1016.24 1016.39 1016.52 1016.63 1016.72 1016.79 1016.86 1016.92 1016.97 1017.01 1017.03 1016.99 1016.90 1016.74 1016.51 1016.23 1015.93 1015.65 1015.42 1015.26 1015.20 1015.23 1015.34 1015.50 1015.68 1015.86 1016.02 1016.15 1016.24 1016.30 1016.33 1016.34 1016.34 1016.31 1016.25 1016.17 1016.06 1015.93 1015.77 1015.61 1015.44 1015.27
1016.47 1016.56 1016.64 1016.72 1016.81 1016.91 1017.03 1017.16 1017.30 1017.42 1017.52 1017.57 1017.54 1017.44 1017.27 1017.03 1016.76 1016.49 1016.24 1016.06 1015.96 1015.93 1015.98 1016.09 1016.23 1016.39 1016.54 1016.68 1016.80 1016.90 1016.98 1017.04 1017.09 1017.11 1017.11 1017.06 1016.98 1016.85 1016.70 1016.52 1016.33 1016.14 1015.95
1016.75 1016.78 1016.80 1016.83 1016.90 1017.02 1017.18 1017.38 1017.60 1017.79 1017.95 1018.03 1018.03 1017.94 1017.77 1017.55 1017.31 1017.07 1016.89 1016.76 1016.70 1016.70 1016.75 1016.84 1016.94 1017.05 1017.16 1017.26 1017.36 1017.47 1017.57 1017.66 1017.74 1017.79 1017.80 1017.76 1017.67 1017.52 1017.34 1017.14 1016.93 1016.72 1016.53
1016.85 1016.84 1016.83 1016.85 1016.92 1017.06 1017.27 1017.54 1017.83 1018.10 1018.31 1018.43 1018.46 1018.39 1018.24 1018.06 1017.86 1017.68 1017.55 1017.48 1017.46 1017.47 1017.52 1017.57 1017.62 1017.68 1017.73 1017.79 1017.87 1017.97 1018.09 1018.21 1018.32 1018.39 1018.42 1018.38 1018.27 1018.11 1017.91 1017.68 1017.45 1017.23 1017.03
1016.74 1016.75 1016.74 1016.76 1016.85 1017.04 1017.31 1017.65 1018.00 1018.34 1018.60 1018.77 1018.83 1018.79 1018.68 1018.54 1018.39 1018.28 1018.21 1018.19 1018.20 1018.23 1018.26 1018.28 1018.28 1018.27 1018.27 1018.29 1018.35 1018.45 1018.58 1018.72 1018.86 1018.95 1018.98 1018.94 1018.83 1018.65 1018.43 1018.18 1017.94 1017.71 1017.49
1016.46 1016.50 1016.53 1016.59 1016.74 1016.98 1017.31 1017.71 1018.13 1018.52 1018.83 1019.04 1019.13 1019.13 1019.06 1018.96 1018.88 1018.83 1018.82 1018.85 1018.89 1018.93 1018.96 1018.95 1018.91 1018.85 1018.81 1018.80 1018.84 1018.94 1019.07 1019.23 1019.38 1019.49 1019.53 1019.49 1019.37 1019.17 1018.93 1018.67 1018.41 1018.16 1017.93
1016.06 1016.17 1016.25 1016.38 1016.58 1016.88 1017.28 1017.74 1018.21 1018.64 1018.99 1019.23 1019.35 1019.39 1019.36 1019.32 1019.29 1019.29 1019.34 1019.42 1019.50 1019.56 1019.58 1019.56 1019.50 1019.43 1019.36 1019.34 1019.37 1019.46 1019.60 1019.77 1019.92 1020.03 1020.07 1020.02 1019.89 1019.68 1019.43 1019.15 1018.87 1018.60 1018.33
1015.60 1015.78 1015.94 1016.14 1016.40 1016.76 1017.21 1017.71 1018.22 1018.68 1019.06 1019.32 1019.48 1019.55 1019.57 1019.57 1019.60 1019.66 1019.76 1019.88 1020.00 1020.09 1020.13 1020.12 1020.06 1019.98 1019.92 1019.89 1019.93 1020.02 1020.16 1020.32 1020.47 1020.57 1020.60 1020.53 1020.39 1020.17 1019.90 1019.61 1019.31 1019.01 1018.70
Thickness
5757 5760 5762 5763 5764 5765 5766 5767 5767 5768 5768 5769 5769 5769 5769 5769 5769 5769 5769 5769 5769 5769 5769 5769 5769 5769 5769 5769 5769 5769 5769 5769 5769 5769 5769 5768 5768 5768 5768 5768 5769 5768 5767
5758 5760 5761 5762 5763 5764 5764 5765 5766 5766 5766 5766 5766 5766 5766 5766 5766 5766 5766 5766 5766 5766 5766 5766 5766 5766 5766 5767 5767 5767 5766 5766 5766 5766 5765 5765 5766 5766 5766 5765 5765 5765 5765
5757 5759 5759 5760 5761 5761 5762 5763 5763 5763 5763 5763 5763 5763 5763 5763 5763 5763 5763 5763 5763 5762 5762 5763 5763 5763 5763 5763 5764 5764 5763 5763 5763 5762 5762 5761 5762 5763 5762 5762 5762 5762 5761
5756 5757 5757 5758 5759 5759 5760 5760 5760 5760 5760 5760 5760 5760 5759 5759 5759 5759 5759 5759 5759 5759 5759 5759 5759 5760 5760 5760 5760 5760 5760 5759 5759 5758 5758 5758 5759 5760 5760 5759 5759 5758 5758
5754 5754 5755 5756 5756 5756 5757 5757 5757 5757 5757 5757 5757 5756 5755 5755 5755 5756 5756 5756 5756 5755 5755 5755 5756 5756 5757 5757 5756 5756 5756 5755 5755 5754 5754 5755 5755 5756 5757 5756 5755 5755 5754
5751 5752 5752 5753 5753 5753 5754 5754 5754 5754 5754 5754 5754 5752 5752 5752 5752 5752 5752 5752 5752 5752 5752 5752 5752 5752 5753 5753 5752 5752 5752 5751 5750 5751 5750 5751 5752 5753 5754 5753 5752 5751 5751
5749 5749 5749 5749 5750 5750 5750 5750 5751 5751 5751 5751 5750 5749 5748 5748 5748 5748 5748 5748 5748 5748 5748 5748 5748 5749 5749 5749 5748 5748 5748 5747 5747 5746 5747 5748 5748 5750 5751 5749 5748 5748 5747
5746 5746 5746 5746 5746 5747 5747 5747 5747 5748 5748 5747 5746 5745 5744 5744 5743 5744 5744 5744 5744 5744 5743 5744 5744 5745 5745 5745 5744 5744 5743 5743 5743 5743 5744 5745 5745 5746 5746 5745 5745 5744 5743
5743 5743 5743 5743 5743 5743 5743 5743 5744 5744 5745 5745 5743 5742 5741 5740 5739 5740 5739 5740 5740 5740 5740 5740 5740 5740 5740 5740 5740 5739 5739 5738 5739 5738 5739 5740 5741 5741 5742 5742 5741 5739 5739
5740 5740 5739 5739 5740 5740 5739 5739 5740 5741 5741 5740 5739 5738 5736 5736 5735 5735 5735 5735 5736 5736 5736 5736 5736 5736 5736 5735 5735 5734 5734 5734 5734 5733 5734 5735 5736 5737 5737 5737 5736 5735 5734
5735 5736 5736 5736 5737 5737 5736 5736 5736 5736 5736 5735 5734 5733 5732 5731 5731 5731 5731 5731 5731 5731 5731 5731 5731 5731 5730 5730 5729 5729 5728 5728 5728 5728 5728 5730 5731 5732 5732 5732 5731 5730 5729
5730 5732 5733 5733 5733 5733 5733 5733 5732 5732 5732 5731 5730 5729 5728 5728 5727 5727 5727 5727 5727 5727 5727 5726 5726 5725 5725 5724 5724 5723 5723 5723 5723 5723 5723 5724 5726 5726 5726 5726 5725 5725 5724
5728 5730 5731 5731 5731 5730 5730 5729 5728 5728 5728 5727 5727 5726 5725 5724 5724 5723 5722 5722 5722 5722 5722 5721 5721 5720 5720 5719 5718 5718 5718 5718 5718 5718 5718 5720 5720 5720 5720 5720 5720 5720 5719
5726 5727 5728 5728 5728 5727 5727 5726 5725 5724 5724 5723 5723 5722 5722 5721 5720 5719 5718 5718 5718 5717 5717 5716 5716 5715 5715 5714 5714 5713 5713 5712 5713 5713 5713 5714 5715 5715 5715 5715 5714 5714 5713
5723 5724 5726 5726 5725 5725 5724 5723 5722 5721 5720 5720 5719 5719 5718 5717 5716 5715 5715 5714 5713 5713 5713 5712 5711 5711 5710 5710 5709 5708 5708 5707 5707 5708 5708 5709 5710 5710 5711 5710 5709 5709 5708
5721 5722 5723 5724 5723 5722 5721 5720 5719 5718 5717 5717 5716 5715 5715 5714 5713 5712 5711 5710 5710 5709 5709 5708 5707 5706 5705 5705 5704 5703 5703 5702 5702 5702 5702 5703 5704 5704 5705 5705 5705 5704 5704
5719 5720 5721 5721 5720 5719 5718 5717 5716 5715 5714 5713 5713 5712 5711 5711 5710 5709 5708 5707 5706 5705 5705 5704 5703 5702 5701 5700 5699 5698 5697 5697 5697 5697 5697 5698 5698 5698 5699 5699 5700 5699 5699
5717 5717 5718 5719 5717 5716 5714 5714 5713 5712 5711 5710 5709 5708 5708 5707 5706 5705 5704 5703 5702 5701 5701 5699 5698 5697 5695 5694 5694 5693 5693 5692 5692 5692 5692 5692 5692 5692 5693 5693 5694 5694 5694
5715 5715 5714 5714 5713 5712 5711 5710 5709 5708 5707 5706 5705 5705 5704 5703 5702 5701 5700 5699 5698 5697 5696 5695 5693 5692 5690 5689 5689 5688 5688 5687 5687 5687 5687 5686 5686 5686 5687 5687 5688 5688 5688
5712 5712 5711 5710 5709 5708 5707 5706 5705 5704 5703 5702 5701 5700 5699 5699 5698 5697 5696 5695 5693 5692 5691 5690 5688 5687 5686 5684 5685 5683 5682 5682 5682 5682 5681 5680 5680 5680 5681 5681 5681 5682 5682
5708 5707 5707 5706 5705 5704 5702 5700 5699 5697 5697 5697 5697 5696 5696 5695 5694 5693 5691 5690 5688 5687 5685 5685 5684 5682 5680 5680 5678 5676 5676 5677 5677 5676 5676 5675 5674 5674 5675 5675 5675 5675 5676
5703 5703 5702 5702 5701 5700 5699 5697 5696 5694 5693 5692 5692 5692 5691 5691 5690 5688 5687 5685 5684 5682 5681 5680 5679 5677 5675 5674 5672 5669 5667 5667 5669 5671 5669 5669 5668 5669 5669 5669 5668 5669 5669
5698 5698 5699 5698 5697 5696 5695 5693 5692 5690 5688 5687 5686 5686 5686 5686 5685 5684 5682 5681 5679 5678 5676 5675 5674 5673 5669 5668 5668 5665 5661 5657 5659 5662 5662 5662 5662 5662 5662 5662 5663 5663 5663
5694 5695 5695 5694 5693 5692 5691 5689 5686 5683 5681 5681 5681 5681 5681 5681 5680 5679 5678 5676 5675 5673 5672 5671 5670 5668 5667 5664 5663 5662 5660 5657 5654 5653 5655 5655 5655 5655 5655 5656 5656 5657 5658
5690 5690 5690 5689 5688 5687 5686 5685 5682 5679 5678 5677 5676 5676 5676 5676 5675 5674 5673 5672 5670 5669 5668 5666 5665 5664 5662 5660 5658 5657 5655 5652 5650 5648 5646 5648 5649 5649 5650 5650 5650 5651 5652
5685 5684 5684 5683 5682 5682 5681 5680 5678 5675 5673 5672 5671 5670 5670 5670 5670 5669 5668 5667 5666 5664 5663 5662 5660 5659 5657 5655 5654 5653 5651 5648 5645 5643 5640 5640 5640 5643 5644 5645 5645 5646 5647